Kivalina, AK

9:12 AM AKDT on June 29, 2017 (GMT -0800)
Kivalina

Weather History for PAVL - February, 2013

Change the Weather History Date:

Friday, February 22, 2013

  Actual Average (PAWN) Record (PAWN)
Temperature  
Mean Temperature -16 °F -  
Max Temperature -13 °F 7 °F 30 °F (2001)
Min Temperature -20 °F -1 °F -41 °F (2017)
Degree Days  
Heating Degree Days 82    
Moisture  
Dew Point -23 °F    
Average Humidity 73    
Maximum Humidity 84    
Minimum Humidity 70    
Precipitation  
Precipitation 0.00 in - - ()
Sea Level Pressure  
Sea Level Pressure 29.71 in    
Wind  
Wind Speed 15 mph (ENE)    
Max Wind Speed 24 mph    
Max Gust Speed -    
Visibility 6 miles    
Events Snow    
Averages and records for this station are not official NWS values.
T = Trace of Precipitation, MM = Missing Value Source: NWS Daily Summary

Daily Weather History Graph

Daily Weather History Graph

Search for Another Location

Airport or City:

Trip Planner

Search our weather history database for the weather conditions in past years. The results will help you decide how hot, cold, wet, or windy it might be!

Date:

Astronomy

Feb. 22, 2013 Rise Set
Actual Time 9:43 AM AKST 6:41 PM AKST
Civil Twilight 8:45 AM AKST 7:39 PM AKST
Nautical Twilight 7:42 AM AKST 8:42 PM AKST
Astronomical Twilight 6:37 AM AKST 9:47 PM AKST
Moon 3:07 PM AKST (2/22) 8:39 AM AKST (2/22)
Length of Visible Light 10h 53m
Length of Day
8h 58m
Waxing Gibbous, 91% of the Moon is Illuminated
Feb 22
Waxing Gibbous
Feb 25
Full
Mar 4
Last Quarter
Mar 11
New
Mar 19
First Quarter

Hourly Weather History & Observations

Time (AKST) Temp. Windchill Dew Point Humidity Pressure Visibility Wind Dir Wind Speed Gust Speed Precip Events Conditions
12:53 AM -16.1 °F -37.2 °F -23.1 °F 71% 29.72 in 10.0 mi NE 11.5 mph - N/A   Clear
1:53 AM -18.9 °F -39.8 °F -26.0 °F 70% 29.72 in 10.0 mi NE 10.4 mph - N/A   Clear
3:53 AM -20.0 °F -37.1 °F -27.0 °F 70% 29.72 in 10.0 mi NNW 6.9 mph - N/A   Clear
4:53 AM -18.9 °F -41.8 °F -26.0 °F 70% 29.72 in 10.0 mi ENE 12.7 mph - N/A   Clear
5:53 AM -20.9 °F -45.3 °F -27.9 °F 70% 29.73 in 10.0 mi NE 13.8 mph - N/A   Clear
6:53 AM -17.0 °F -40.2 °F -24.0 °F 70% 29.74 in 10.0 mi ENE 13.8 mph - N/A   Clear
7:53 AM -16.1 °F -41.4 °F -23.1 °F 71% 29.74 in 10.0 mi NE 17.3 mph - N/A   Mostly Cloudy
8:53 AM -18.0 °F -41.6 °F -24.0 °F 74% 29.74 in 10.0 mi ENE 13.8 mph - N/A   Clear
9:53 AM -20.9 °F -46.2 °F -27.9 °F 70% 29.75 in 9.0 mi NE 15.0 mph - N/A   Clear
10:53 AM -17.0 °F -41.9 °F -24.0 °F 70% 29.74 in 9.0 mi ENE 16.1 mph - N/A   Clear
11:53 AM -16.1 °F -43.4 °F -23.1 °F 71% 29.74 in 5.0 mi ENE 20.7 mph - N/A   Haze
12:53 PM -15.0 °F -42.0 °F -22.0 °F 71% 29.74 in 5.0 mi ENE 20.7 mph - N/A   Haze
1:53 PM -15.0 °F -40.0 °F -22.0 °F 71% 29.73 in 8.0 mi ENE 17.3 mph - N/A   Clear
2:53 PM -15.0 °F -41.4 °F -22.0 °F 71% 29.73 in 5.0 mi ENE 19.6 mph - N/A   Haze
3:53 PM -14.1 °F -36.6 °F -20.9 °F 71% 29.73 in 8.0 mi ENE 13.8 mph - N/A   Scattered Clouds
4:53 PM -13.0 °F -37.5 °F -20.0 °F 71% 29.72 in 6.0 mi ENE 17.3 mph - N/A   Haze
5:53 PM -13.0 °F -36.0 °F -20.0 °F 71% 29.71 in 6.0 mi ENE 15.0 mph - N/A   Haze
6:53 PM -13.0 °F -40.0 °F -20.0 °F 71% 29.70 in 3.0 mi NE 21.9 mph - 0.00 in   Overcast
7:00 PM -13.0 °F -39.4 °F -18.4 °F 77% 29.70 in 2.0 mi NE 20.7 mph - 0.00 in Snow Light Snow
7:53 PM -14.1 °F -42.5 °F -20.0 °F 75% 29.69 in 2.5 mi ENE 24.2 mph - 0.00 in   Overcast
8:04 PM -14.8 °F -42.9 °F -20.2 °F 77% 29.68 in 1.8 mi ENE 23.0 mph - 0.00 in   Overcast
8:12 PM -14.8 °F -41.8 °F -20.2 °F 77% 29.68 in 2.5 mi ENE 20.7 mph - 0.00 in   Overcast
8:19 PM -14.8 °F -40.5 °F -20.2 °F 77% 29.68 in 3.0 mi ENE 18.4 mph - 0.00 in   Overcast
8:53 PM -14.1 °F -40.8 °F -20.0 °F 75% 29.68 in 4.0 mi ENE 20.7 mph - 0.00 in   Overcast
9:40 PM -16.6 °F -43.5 °F -20.2 °F 84% 29.66 in 2.5 mi ENE 19.6 mph - 0.00 in   Overcast
9:49 PM -16.6 °F -42.9 °F -22.0 °F 76% 29.66 in 5.0 mi ENE 18.4 mph - 0.00 in   Haze
9:53 PM -16.1 °F -42.1 °F -22.0 °F 74% 29.66 in 5.0 mi ENE 18.4 mph - 0.00 in   Haze
10:53 PM -18.0 °F -39.7 °F -23.1 °F 78% 29.66 in 9.0 mi ENE 11.5 mph - N/A   Mostly Cloudy
11:53 PM -18.0 °F -39.7 °F -24.0 °F 74% 29.66 in 8.0 mi NE 11.5 mph - N/A   Overcast